SWAS

Last updated on Thu Nov 06 2025 00:03:34 GMT+0000 (Coordinated Universal Time)

1 25560U 98071A 25308.78166500 .00004805 00000+0 32318-3 0 9990 2 25560 69.8957 85.3714 0008732 252.2989 107.7221 15.07397195463425
UTC large
Height (km)
Speed (km/s)
/
Latitude / Longitude
Inclination (degrees)
Orbital Period (minutes)
Azimuth
Elevation
Range (km)
Doppler Factor

Next 0 passes for location: London (51.5072 / 0.1276)

Sorry there are no passes over London.